[[{"header":{"parameterUnit":"m.s-1","parameterCategory":1,"la1":30.2991,"la2":30.254,"lo1":-89.0895,"lo2":-89.0444,"dx":0.0017,"dy":0.0017,"nx":28,"ny":28,"refTime":"2023-02-06T09:00:00:Z","depth":0,"parameterNumber":2,"parameterNumberName":"U-component_of_WINDS"},"data":[0,0,0,0,0,0,0,0,0,0,0,0,0,0,0,0,0,0,0,0,0,0,0,0,0,0,0,0,0,0,0,0,0,0,0,0,0,0,0,0,0,0,0,0,0,0,0,0,0,0,0,0,0,0,0,0,0,0,-3.0422,-3.0422,0,-3.0425,-3.0425,-3.0425,-3.0363,-3.0361,-3.036,-3.0358,-3.0361,-3.0363,-3.0365,0,0,0,0,0,0,0,0,0,0,0,0,0,-3.0364,-3.0365,-3.0422,-3.0422,-3.0422,-3.0425,-3.0425,-3.0425,-3.0363,-3.0361,-3.0359,-3.0357,-3.0361,-3.0363,-3.0365,0,0,0,0,0,0,0,0,0,0,0,0,0,-3.038,-3.0366,-3.0422,-3.0392,-3.0389,-3.0425,-3.0425,-3.0425,-3.0364,-3.0361,-3.0359,-3.0356,-3.036,-3.0363,-3.0365,-3.0431,0,0,-3.0373,-3.0374,0,0,0,0,0,0,0,0,-3.0379,-3.0382,-3.0396,-3.0394,-3.0391,-3.0391,-3.0406,-3.0427,-3.0365,-3.0373,-3.0358,-3.0355,-3.0373,-3.0375,-3.0381,-3.0431,-3.0431,-3.0373,-3.0374,-3.0375,-3.0376,0,0,0,0,0,0,0,-3.0378,-3.0382,-3.0423,-3.0396,-3.0393,-3.0378,-3.0378,-3.041,-3.0387,-3.0372,-3.0368,-3.0369,-3.0371,-3.0379,-3.038,-3.0431,-3.0373,-3.0375,-3.0377,-3.0378,-3.0537,-3.054,0,0,0,0,0,0,-3.0381,-3.0381,-3.0423,-3.0423,-3.0379,-3.0381,-3.0381,-3.0394,-3.0387,-3.0384,-3.0371,-3.0366,-3.0376,-3.0378,-3.038,-3.0457,-3.0375,-3.0378,-3.0379,-3.0535,-3.0538,-3.0541,0,0,0,0,0,0,-3.038,-3.0386,-3.0423,-3.0401,-3.0405,-3.0385,-3.04,-3.0395,-3.0402,-3.0386,-3.0382,-3.0382,-3.0374,-3.0377,-3.0419,-3.0457,-3.0379,-3.0381,-3.0531,-3.0536,-3.0539,-3.0612,0,0,0,0,0,0,-3.0379,-3.0386,-3.041,-3.0402,-3.0406,-3.0462,-3.0402,-3.0397,-3.0406,-3.04,-3.0395,-3.0392,-3.0372,-3.0416,-3.0422,-3.0459,-3.0383,-3.0528,-3.0533,-3.0538,-3.0606,-3.0618,-3.0628,0,0,0,0,0,-3.0377,-3.043,-3.0411,-3.0417,-3.0436,-3.0464,-3.0466,-3.0442,-3.041,-3.0434,-3.0425,-3.0392,-3.0452,-3.0421,-3.0427,-3.0465,-3.0525,-3.0532,-3.0538,-3.0601,-3.0616,-3.0628,0,0,0,0,0,0,-3.0441,-3.0428,-3.0407,-3.0459,-3.0463,-3.0453,-3.0483,-3.0458,-3.0471,-3.0464,-3.0433,-3.0433,-3.048,-3.0477,-3.0442,-3.0529,-3.0483,-3.0491,-3.0529,-3.0543,-3.0554,-3.0553,-3.0385,0,0,0,0,0,-3.0462,-3.0485,-3.0472,-3.0519,-3.0523,-3.0503,-3.0514,-3.0495,-3.0498,-3.0499,-3.0492,-3.0496,-3.0516,-3.0529,-3.0547,-3.0606,-3.0605,-3.0636,-3.0647,-3.0656,-3.0663,-3.0695,-3.0709,-3.0561,-3.0561,-3.0561,0,0,-3.0503,-3.0499,-3.0516,-3.0532,-3.0533,-3.0559,-3.0505,-3.0533,-3.0552,-3.0503,-3.0543,-3.0539,-3.0541,-3.0593,-3.0615,-3.0591,-3.0704,-3.0664,-3.0671,-3.0673,-3.0703,-3.0717,-3.0729,-3.0565,-3.0565,-3.0564,0,0,-3.0593,-3.0592,-3.0631,-3.0634,-3.0636,-3.0623,-3.0633,-3.0628,-3.0623,-3.0663,-3.0627,-3.0649,-3.0684,-3.0687,-3.0694,-3.0788,-3.0759,-3.0795,-3.0852,-3.0884,-3.0896,-3.0906,-3.094,-3.0952,-3.0802,-3.0802,-3.0802,0,-3.0644,-3.0681,-3.0655,-3.0687,-3.0695,-3.0654,-3.0694,-3.0698,-3.0706,-3.0713,-3.0687,-3.073,-3.0729,-3.0782,-3.0805,-3.0812,-3.0822,-3.0794,-3.0896,-3.0906,-3.0915,-3.0947,-3.096,-3.0806,-3.0806,-3.0805,-3.0805,0,-3.0745,-3.0771,-3.0803,-3.0812,-3.0825,-3.0861,-3.0841,-3.0857,-3.0838,-3.0828,-3.087,-3.0868,-3.0884,-3.0896,-3.0877,-3.0946,-3.0931,-3.0901,-3.0854,-3.0934,-3.0964,-3.0976,-3.0812,-3.0811,-3.0809,-3.0808,0,0,-3.0872,-3.0869,-3.0881,-3.0885,-3.0886,-3.0906,-3.0941,-3.0958,-3.0973,-3.0981,-3.1009,-3.1041,-3.1014,-3.1021,-3.1003,-3.1031,-3.1107,-3.0997,-3.0997,-3.1018,-3.1184,-3.1206,-3.1221,-3.1088,-3.1091,-3.1092,-3.1184,0,-3.0959,-3.1018,-3.0997,-3.1057,-3.1082,-3.1044,-3.1075,-3.1079,-3.1072,-3.1092,-3.1084,-3.1107,-3.1069,-3.1073,-3.11,-3.1092,-3.1139,-3.1085,-3.1115,-3.1116,-3.1115,-3.1236,-3.1259,-3.1345,-3.1195,-3.1197,-3.1198,0,-3.1067,-3.108,-3.1144,-3.1142,-3.1152,-3.1179,-3.1194,-3.1214,-3.1219,-3.1212,-3.1222,-3.1198,-3.1233,-3.1187,-3.1236,-3.1199,-3.1211,-3.1209,-3.1212,-3.1213,-3.1162,-3.124,-3.1372,-3.1385,-3.1216,-3.1215,-3.1214,0,-3.1154,-3.1188,-3.123,-3.1235,-3.1234,-3.1255,-3.1256,-3.1258,-3.1271,-3.1284,-3.1292,-3.1309,-3.1318,-3.1333,-3.1315,-3.1283,-3.1366,-3.1318,-3.1361,-3.1362,-3.1379,-3.1378,-3.1515,-3.1388,-3.1388,-3.1388,-3.1387,0,-3.1253,-3.1293,-3.1269,-3.1295,-3.134,-3.1316,-3.1361,-3.1358,-3.1361,-3.1386,-3.1355,-3.138,-3.1355,-3.1377,-3.1364,-3.1406,-3.1411,-3.1406,-3.1402,-3.1409,-3.1409,-3.1415,-3.1408,-3.1391,-3.139,-3.139,-3.1389,0,-3.1356,-3.1342,-3.1386,-3.1383,-3.1383,-3.1416,-3.1413,-3.1438,-3.1429,-3.1462,-3.1468,-3.1455,-3.148,-3.1464,-3.1489,-3.148,-3.1536,-3.1524,-3.1534,-3.1531,-3.1575,-3.1571,-3.1719,-3.1737,-3.1599,-3.1601,-3.1602,0,-3.142,-3.145,-3.1451,-3.1466,-3.1469,-3.1493,-3.1506,-3.1484,-3.1499,-3.1509,-3.1532,-3.1555,-3.1572,-3.1614,-3.1607,-3.1627,-3.1614,-3.1665,-3.1617,-3.1623,-3.1615,-3.1613,-3.1617,-3.1674,-3.1676,-3.1677,-3.1678,0,-3.1534,-3.1526,-3.1545,-3.1564,-3.158,-3.1593,-3.1603,-3.1618,-3.1596,-3.1615,-3.1641,-3.1654,-3.1681,-3.1704,-3.1721,-3.1722,-3.1697,-3.1694,-3.1705,-3.1712,-3.1717,-3.1715,-3.156,-3.169,-3.1689,-3.1688,-3.1687,-3.1687,-3.1619,-3.1645,-3.165,-3.1673,-3.1679,-3.1691,-3.1714,-3.1709,-3.173,-3.175,-3.1737,-3.1768,-3.1774,-3.1795,-3.1799,-3.1824,-3.1803,-3.1819,-3.1823,-3.1827,-3.1833,-3.1714,-3.1827,-3.1826,-3.1826,-3.1826,-3.1825,0,-3.1732,-3.1734,-3.1756,-3.1772,-3.1791,-3.1767,-3.1778,-3.1795,-3.1823,-3.1831,-3.1849,-3.188,-3.1903,-3.1899,-3.192,-3.194,-3.1929,-3.1946,-3.1944,-3.1945,-3.185,-3.1839,-3.1955,-3.1955,-3.1955,-3.1955,-3.1955,-3.1955,-3.1793,-3.1835,-3.1829,-3.1875,-3.1876,-3.1907,-3.1915,-3.1926,-3.1932,-3.1968,-3.1987,-3.1985,-3.1988,-3.201,-3.203,-3.2029,-3.2038,-3.2059,-3.2053,-3.1964,-3.1952,-3.1939,-3.1928,-3.2061,-3.2062,-3.2146,-3.2147,-3.2147]},{"header":{"parameterUnit":"m.s-1","parameterCategory":1,"la1":30.2991,"la2":30.254,"lo1":-89.0895,"lo2":-89.0444,"dx":0.0017,"dy":0.0017,"nx":28,"ny":28,"refTime":"2023-02-06T09:00:00:Z","depth":0,"parameterNumber":3,"parameterNumberName":"V-component_of_WINDS"},"data":[0,0,0,0,0,0,0,0,0,0,0,0,0,0,0,0,0,0,0,0,0,0,0,0,0,0,0,0,0,0,0,0,0,0,0,0,0,0,0,0,0,0,0,0,0,0,0,0,0,0,0,0,0,0,0,0,0,0,0.7755,0.7755,0,0.7784,0.7784,0.7784,0.7837,0.7838,0.7839,0.784,0.7867,0.7867,0.7867,0,0,0,0,0,0,0,0,0,0,0,0,0,0.7744,0.7744,0.7755,0.7755,0.7756,0.7784,0.7784,0.7784,0.7837,0.7838,0.7839,0.7841,0.7867,0.7867,0.7867,0,0,0,0,0,0,0,0,0,0,0,0,0,0.7758,0.7744,0.7755,0.7785,0.7788,0.7784,0.7784,0.7785,0.7837,0.7838,0.784,0.7841,0.7867,0.7867,0.7866,0.7834,0,0,0.7865,0.7865,0,0,0,0,0,0,0,0,0.7757,0.7759,0.778,0.7783,0.7786,0.7808,0.779,0.7801,0.7836,0.7818,0.784,0.7842,0.7846,0.7848,0.785,0.7835,0.7836,0.7865,0.7865,0.7865,0.7865,0,0,0,0,0,0,0,0.7756,0.7758,0.7766,0.7781,0.7784,0.7797,0.7801,0.7792,0.7823,0.782,0.7824,0.7827,0.7848,0.785,0.7851,0.7837,0.7865,0.7865,0.7865,0.7865,0.7799,0.7797,0,0,0,0,0,0,0.7751,0.7756,0.7765,0.7767,0.7775,0.7796,0.78,0.78,0.7823,0.7828,0.7825,0.7829,0.785,0.7851,0.7852,0.7816,0.7865,0.7865,0.7865,0.78,0.7798,0.7797,0,0,0,0,0,0,0.7751,0.7751,0.7764,0.7763,0.7765,0.7795,0.7794,0.78,0.7801,0.7828,0.7833,0.7821,0.7851,0.7852,0.7839,0.7818,0.7865,0.7864,0.7802,0.78,0.7797,0.7744,0,0,0,0,0,0,0.775,0.7751,0.7739,0.7762,0.7765,0.775,0.7792,0.7799,0.7801,0.7806,0.7825,0.783,0.7852,0.7839,0.7838,0.7818,0.7864,0.7804,0.7801,0.7798,0.7748,0.774,0.7734,0,0,0,0,0,0.775,0.7722,0.7738,0.7739,0.7751,0.7749,0.7751,0.7778,0.7799,0.7787,0.7804,0.7829,0.782,0.7837,0.7837,0.7816,0.7805,0.7802,0.7798,0.7751,0.7742,0.7734,0,0,0,0,0,0,0.7694,0.7725,0.7744,0.7723,0.7733,0.7758,0.7744,0.7767,0.777,0.7775,0.7807,0.7811,0.7793,0.7804,0.7821,0.7787,0.7817,0.7813,0.7781,0.7772,0.7765,0.7763,0.7864,0,0,0,0,0,0.7679,0.7676,0.7703,0.7682,0.7687,0.7714,0.7714,0.7734,0.7746,0.775,0.7766,0.7776,0.7776,0.7774,0.7775,0.775,0.7755,0.7736,0.7729,0.7723,0.7719,0.7707,0.7699,0.7785,0.7785,0.7785,0,0,0.7649,0.7666,0.7661,0.7671,0.7682,0.7677,0.7717,0.771,0.7707,0.7749,0.7738,0.775,0.7763,0.7743,0.7735,0.7751,0.7697,0.7718,0.7713,0.7713,0.7703,0.7695,0.7688,0.7783,0.7783,0.7784,0,0,0.7591,0.7603,0.7588,0.7598,0.7614,0.7633,0.7629,0.7651,0.7661,0.765,0.7682,0.7679,0.7677,0.7685,0.7689,0.7637,0.766,0.7636,0.7599,0.7588,0.7581,0.7575,0.7557,0.755,0.7633,0.7632,0.7632,0,0.7551,0.7546,0.7577,0.7569,0.7572,0.7611,0.7596,0.7604,0.7618,0.762,0.7638,0.7638,0.7649,0.7633,0.762,0.7622,0.7619,0.7634,0.7579,0.7574,0.7569,0.7552,0.7545,0.7629,0.763,0.763,0.763,0,0.7497,0.7493,0.7478,0.7493,0.7495,0.7483,0.7512,0.7511,0.7531,0.7548,0.7537,0.7552,0.7558,0.7555,0.7574,0.7542,0.7552,0.7574,0.7605,0.7557,0.7542,0.7536,0.7625,0.7626,0.7627,0.7628,0,0,0.7404,0.7437,0.7431,0.7439,0.746,0.7458,0.7448,0.7454,0.7453,0.7462,0.7455,0.7453,0.7475,0.7479,0.75,0.7489,0.7448,0.7513,0.7514,0.7501,0.7415,0.7398,0.739,0.7464,0.7463,0.7462,0.7414,0,0.7351,0.7337,0.7365,0.7344,0.7341,0.7379,0.7371,0.7382,0.7398,0.7398,0.7416,0.7415,0.7442,0.7446,0.7437,0.7455,0.7431,0.7459,0.7458,0.7457,0.7453,0.7382,0.7364,0.7318,0.7408,0.7407,0.7406,0,0.7287,0.7295,0.7274,0.7298,0.7298,0.729,0.7299,0.7298,0.7313,0.7325,0.7331,0.7356,0.7348,0.7378,0.7368,0.7386,0.7388,0.7396,0.7395,0.7396,0.7429,0.7381,0.7303,0.7296,0.7397,0.7398,0.7399,0,0.7222,0.7227,0.7216,0.7221,0.7249,0.7243,0.7254,0.727,0.7272,0.728,0.7282,0.7288,0.7292,0.7296,0.7322,0.7341,0.7309,0.7341,0.7319,0.7318,0.731,0.731,0.7232,0.731,0.7311,0.7311,0.7311,0,0.716,0.7146,0.7188,0.718,0.7166,0.7199,0.7183,0.7198,0.7212,0.7209,0.7242,0.7237,0.7272,0.7271,0.7291,0.728,0.7281,0.7291,0.7297,0.7289,0.7287,0.729,0.7294,0.7309,0.7309,0.731,0.731,0,0.7085,0.7112,0.7103,0.713,0.7137,0.7125,0.7148,0.7143,0.7162,0.7157,0.7158,0.7187,0.7188,0.7215,0.7221,0.7235,0.7216,0.7227,0.7211,0.7215,0.7192,0.7194,0.7112,0.7103,0.7187,0.7187,0.7186,0,0.7044,0.7035,0.7062,0.7062,0.7072,0.7072,0.7076,0.7108,0.711,0.7127,0.7119,0.7124,0.7129,0.713,0.7151,0.7157,0.7169,0.714,0.7169,0.7162,0.7169,0.7169,0.7169,0.7133,0.7132,0.7131,0.713,0,0.6969,0.6983,0.6987,0.6996,0.7,0.7008,0.7018,0.7017,0.7052,0.7053,0.7056,0.706,0.7068,0.7072,0.7082,0.7093,0.7117,0.7121,0.7117,0.7108,0.7099,0.7104,0.7194,0.7123,0.7123,0.7124,0.7124,0.7125,0.691,0.6903,0.6922,0.6926,0.6938,0.6947,0.6944,0.6963,0.6966,0.6976,0.6994,0.6994,0.701,0.7026,0.7035,0.7036,0.7051,0.7044,0.7042,0.704,0.7036,0.7099,0.7038,0.7038,0.7038,0.7038,0.7039,0,0.6836,0.6851,0.6854,0.6868,0.6872,0.6896,0.6909,0.691,0.691,0.6924,0.6929,0.6932,0.6937,0.6959,0.6966,0.6962,0.6974,0.6963,0.6964,0.6966,0.7022,0.7025,0.6954,0.6954,0.6954,0.6954,0.6954,0.6954,0.6798,0.679,0.6806,0.6804,0.6818,0.6819,0.6825,0.6834,0.6845,0.6848,0.6853,0.6868,0.6885,0.6894,0.6899,0.6906,0.6907,0.6892,0.6903,0.6954,0.6962,0.697,0.6973,0.6892,0.6892,0.6847,0.6847,0.6847]}]]